This is the latest recevied weather packets stored in our database for station/object KD2RHT-13. If no packets are shown the sender has not sent any weather packets the latest 10 day(s).
| Time | Temp. | Humidity | Pressure | Rain* | Wind** | Luminosity | Snow |
|---|---|---|---|---|---|---|---|
| 1777552126 | 6.11° C | 99% | 1010.7 hPa | 0 mm | - | 55 W/m² | - |
| 1777551823 | 6.11° C | 99% | 1010.7 hPa | 0 mm | - | 81 W/m² | - |
| 1777551521 | 6.11° C | 99% | 1010.7 hPa | 0 mm | - | 66 W/m² | - |
| 1777551217 | 6.67° C | 99% | 1011.1 hPa | 0 mm | - | 52 W/m² | - |
| 1777550914 | 6.11° C | 99% | 1010.7 hPa | 0 mm | - | 36 W/m² | - |
| 1777550611 | 6.11° C | 99% | 1010.7 hPa | 0 mm | - | 41 W/m² | - |
| 1777550307 | 6.11° C | 99% | 1011.1 hPa | 0 mm | - | 39 W/m² | - |
| 1777550003 | 6.11° C | 99% | 1011.1 hPa | 0 mm | - | 32 W/m² | - |
| 1777549700 | 6.11° C | 99% | 1010.7 hPa | 0 mm | - | 25 W/m² | - |
| 1777549395 | 6.11° C | 99% | 1010.7 hPa | 0 mm | - | 26 W/m² | - |
| 1777549092 | 6.11° C | 99% | 1010.7 hPa | 0 mm | - | 25 W/m² | - |
| 1777548788 | 6.11° C | 99% | 1010.7 hPa | 0 mm | - | 27 W/m² | - |
| 1777548486 | 6.67° C | 99% | 1010.7 hPa | 0 mm | - | 19 W/m² | - |
| 1777548183 | 6.67° C | 99% | 1010.7 hPa | 0 mm | - | 14 W/m² | - |
| 1777547879 | 6.67° C | 99% | 1010.7 hPa | 0 mm | - | 15 W/m² | - |
| 1777547574 | 6.67° C | 99% | 1010.4 hPa | 0 mm | - | 14 W/m² | - |
| 1777547273 | 6.67° C | 99% | 1010.4 hPa | 0 mm | - | 15 W/m² | - |
| 1777546970 | 6.67° C | 99% | 1010.4 hPa | 0 mm | - | 18 W/m² | - |
| 1777546667 | 6.67° C | 99% | 1010 hPa | 0 mm | - | 15 W/m² | - |
| 1777546363 | 6.67° C | 99% | 1010.4 hPa | 0 mm | - | 13 W/m² | - |
| 1777546060 | 6.67° C | 99% | 1009.7 hPa | 0 mm | - | 11 W/m² | - |
| 1777545756 | 6.67° C | 99% | 1010 hPa | 0 mm | - | 8 W/m² | - |
| 1777545453 | 6.67° C | 99% | 1010 hPa | 0 mm | - | 7 W/m² | - |
| 1777545151 | 6.67° C | 99% | 1009.7 hPa | 0 mm | - | 6 W/m² | - |
| 1777544848 | 6.67° C | 99% | 1009.7 hPa | 0 mm | - | 6 W/m² | - |
* Rain latest hour (hover to see other rain measurements)
** Current wind speed in m/s (hover to see current wind gust speed)